Regional Weather Roundup
Issued by NWS

Home | Current Version | Previous Version | Text Only | Print | Product List | Glossary On
Versions: 1 2 3 4 5 6 7 8 9 10 11 12 13 14 15 16 17 18 19 20 21 22 23 24 25 26 27
000
ASUS45 KBOU 221707
RWRCO

WEATHER ROUNDUP FOR COLORADO
NATIONAL WEATHER SERVICE DENVER/BOULDER CO
1100 AM MDT THU JUN 22 2017

NOTE: "FAIR" INDICATES FEW OR NO CLOUDS BELOW 12000 FEET WITH NO
SIGNIFICANT WEATHER AND/OR OBSTRUCTIONS TO VISIBILITY.

COZ001>005-013-030-031-221800-
...NORTHWEST COLORADO...

CITY           SKY/WX    TMP DP  RH WIND       PRES   REMARKS
CRAIG          FAIR      80  42  25 CALM      30.04F
HAYDEN         FAIR      75  39  27 CALM      30.06F
MEEKER         FAIR      81  39  22 CALM      30.03F
RABBIT EARS PA FAIR      61  37  41 W8        30.37R
STEAMBOAT SPGS FAIR      73  46  37 CALM      30.08S
WALDEN         FAIR      75  36  23 W16       30.17R
$$

COZ006>008-011-221800-
...WEST CENTRAL VALLEYS...

CITY           SKY/WX    TMP DP  RH WIND       PRES   REMARKS
GRAND JUNCTION FAIR      85  39  19 S7        29.93F
MONTROSE       FAIR      78  43  28 NW7       30.01F
EAGLE          SUNNY     75  39  27 CALM      30.09F
RIFLE          FAIR      81  40  23 N5        29.99F
DELTA          FAIR      89  36  15 E6        29.96F
NUCLA          FAIR      86  32  14 W3        30.05F
$$

COZ017>023-064>068-221800-
...SOUTHWEST COLORADO...

CITY           SKY/WX    TMP DP  RH WIND       PRES   REMARKS
DURANGO        FAIR      85  35  16 CALM      30.11F
CORTEZ         FAIR      89  37  16 SW20      30.05R
PAGOSA SPRINGS FAIR      78  29  16 S6        30.22S
TELLURIDE      NOT AVBL
WOLF CREEK PAS FAIR      59  34  38 S9        30.60S
$$

COZ009-010-012-014-032>034-037-058>063-221800-
...CENTRAL COLORADO...

CITY           SKY/WX    TMP DP  RH WIND       PRES   REMARKS
ASPEN          FAIR      73  41  31 N6        30.15S
BUENA VISTA    FAIR      78  31  18 S5        30.16F
COPPER MTN     FAIR      64  27  24 W12G24    30.51S
BERTHOUD PASS  FAIR      54  41  62 W31G39    30.51F
COTTONWOOD PAS FAIR      75  25  15 NW6       30.33S
GUNNISON       FAIR      72  39  30 W3        30.19F
KREMMLING      NOT AVBL
LEADVILLE      FAIR      71  28  20 VRB7      30.30F
MONARCH PASS   FAIR      61  30  31 W15G25    30.62S
SALIDA         FAIR      84  29  13 CALM      30.20F
SUNLIGHT       FAIR      64  36  34 SW8       30.43S
WILKERSON PASS FAIR      64  28  25 SW10      30.47S
$$

COZ069>075-221800-
...SAN LUIS VALLEY/SANGRE DE CRISTO MOUNTAINS...

CITY           SKY/WX    TMP DP  RH WIND       PRES   REMARKS
ALAMOSA        FAIR      75  40  28 E8        30.19F
DEL NORTE      FAIR      79  36  21 SE7       30.21F
LA VETA PASS   FAIR      70  39  32 MISG      30.51S
SAGUACHE       FAIR      75  37  25 SE8       30.21S
$$

COZ035-036-038>040-221800-
...NORTHERN COLORADO FRONT RANGE...

CITY           SKY/WX    TMP DP  RH WIND       PRES   REMARKS
DENVER INTL AP FAIR      92  37  14 N17G25    29.92S
DMNS CITY PARK   N/A     89  37  16 E3G9      29.91S
AURORA         MOSUNNY   90  36  14 SE5       29.94F
FRONT RANGE AP MOSUNNY   90  39  17 N18G26    29.95R
ERIE MUNI ARPT FAIR      91  36  14 E13       29.89S
BOULDER MUN AP FAIR      91  37  15 NE8       29.89S
CENTENNIAL     FAIR      90  35  14 CALM      29.95F
BROOMFIELD     FAIR      90  36  14 NE5       29.94S
FORT COLLINS   LGT RAIN  80  54  40 NE18G28   29.91S
LONGMONT       FAIR      93  43  17 E16       29.90R
$$

COZ041-046-047-076>085-087-088-221800-
...PIKES PEAK/PALMER DIVIDE AND SOUTHERN FOOTHILLS...

CITY           SKY/WX    TMP DP  RH WIND       PRES   REMARKS
COLO. SPRINGS  PTSUNNY   87  35  15 VRB3      29.99F
A. F. ACADEMY  FAIR      86  35  16 E9        30.01F
SCHRIEVER AFB  NOT AVBL
CHEYENNE MTN   NOT AVBL
ELLICOTT       FAIR     N/A N/A N/A SW8       29.98F
FALCON           N/A     88  28  11 S10G20    30.06F
FORT CARSON    FAIR      88  41  19 NE6       29.95F HAZE
LIMON          FAIR      93  39  15 N18G26    29.93R
MONUMENT HILL  FAIR      82  36  18 SW10G16   30.08F
CANON CITY     SUNNY     91  37  15 W12       29.92F
WALSENBURG     FAIR      90  37  15 W13G21    30.01F
TRINIDAD       FAIR      88  41  19 W10       29.98S
$$

COZ042>045-048>051-090-091-221800-
...NORTHEAST COLORADO...

CITY           SKY/WX    TMP DP  RH WIND       PRES   REMARKS
GREELEY ARPT   FAIR      83  51  33 NE21G26   29.91R
AKRON          FAIR      84  49  29 N25G32    29.90R
BURLINGTON     FAIR      94  47  20 N14G22    29.82R
WRAY           FAIR      90  48  24 N20G32    29.82R
YUMA           FAIR      88  50  27 N18G28    29.85R
STERLING       FAIR      82  54  36 N17G25    29.86R
HOLYOKE        NOT AVBL
FORT MORGAN    FAIR      83  47  28 N21G26    29.89S
$$

COZ086-089-092>099-221800-
...SOUTHEAST COLORADO...

CITY           SKY/WX    TMP DP  RH WIND       PRES   REMARKS
PUEBLO         FAIR      88  49  25 SW6       29.87F
LA JUNTA       FAIR      88  50  27 W15       29.83F
LAMAR          FAIR      92  53  26 W15       29.77R
SPRINGFIELD      N/A     92  54  27 NW12      29.82F
$$




USA.gov is the U.S. government's official web portal to all federal, state and local government web resources and services.